STARLINK-3324 (50814 NORAD) Tracking and Keplerian Element Data

This shows tracking and keplerian element data for the satellite.

Feedback or suggestion? Click here.




ElementValue
Catalog50814
NameSTARLINK-3324
Epoch Orbit382
Epoch Day22.91667824
Epoch Year2022
RAAN119.7781
Inclination53.2175
Eccentricity0.0001043
Argument of Perigee92.2765
Mean Anonmoly214.2693
Mean Motion15.75123058
Decay Rate-0.00820899
L11 50814U 22001M 22022.91667824 -.00820899 00000+0 -59229-2 0 9990
L22 50814 53.2175 119.7781 0001043 92.2765 214.2693 15.75123058 3823

Live tracking and technical data element details for STARLINK-3324 (NORAD 50814). STARLINK-3324 can be tracked NOW for your location showing map with azimuth and elevation plus other details from your city location.

Track the satellite on the map from your city or location and see movement details for azimuth, elevation, latitude, longitude, range, height, and movement on the map or in text.







IsCatalogInMostPopularTable: catalog: 50814, numindb: 2
Update: records affected: 1



GetName: 50814 STARLINK-3324

Hit Count: updated at: Mon, 24 Jan 2022 00:20:39 GMT